MOLNIYA 1-81 (21426 NORAD) Tracking and Keplerian Element Data

This shows tracking and keplerian element data for the satellite.

Feedback or suggestion? Click here.




ElementValue
Catalog21426
NameMOLNIYA 1-81
Epoch Orbit25286
Epoch Day353.62597534
Epoch Year2025
RAAN198.0793
Inclination63.416
Eccentricity0.6736699
Argument of Perigee259.3661
Mean Anonmoly24.0926
Mean Motion2.00584496
Decay Rate3.23E-06
L11 21426U 91043A 25353.62597534 .00000323 00000+0 00000+0 0 9997
L22 21426 63.4160 198.0793 6736699 259.3661 24.0926 2.00584496252866



Live tracking and technical data element details for MOLNIYA 1-81 (NORAD 21426). MOLNIYA 1-81 can be tracked NOW for your location showing map with azimuth and elevation plus other details from your city location.







IsCatalogInMostPopularTable: catalog: 21426, numindb: 350
Update: records affected: 1



GetName: 21426 MOLNIYA 1-81

Hit Count: updated at: Fri, 16 Jan 2026 03:22:01 GMT